[[{"header":{"parameterUnit":"m.s-1","parameterCategory":1,"la1":30.2991,"la2":30.254,"lo1":-89.0895,"lo2":-89.0444,"dy":0.0017,"dx":0.0017,"nx":28,"ny":28,"refTime":"2024-11-30T03:00:00:Z","depth":0,"parameterNumber":2,"parameterNumberName":"U-component_of_WINDS"},"data":[0,0,0,0,0,0,0,0,0,0,0,0,0,0,0,0,0,0,0,0,0,0,0,0,0,0,0,0,0,0,0,0,0,0,0,0,0,0,0,0,0,0,0,0,0,0,0,0,0,0,0,0,0,0,0,0,0,0,-3.4717,-3.4718,0,-3.4781,-3.4781,-3.4782,-3.4661,-3.4657,-3.4653,-3.4649,-3.4715,-3.4721,-3.4726,0,0,0,0,0,0,0,0,0,0,0,0,0,-3.4492,-3.4497,-3.4717,-3.4718,-3.4719,-3.478,-3.4781,-3.4782,-3.4662,-3.4657,-3.4652,-3.4648,-3.4713,-3.472,-3.4726,0,0,0,0,0,0,0,0,0,0,0,0,0,-3.4576,-3.4499,-3.4717,-3.4666,-3.4662,-3.478,-3.4781,-3.4782,-3.4663,-3.4657,-3.4651,-3.4645,-3.4711,-3.4719,-3.4727,-3.4898,0,0,-3.4753,-3.4756,0,0,0,0,0,0,0,0,-3.4572,-3.4585,-3.4673,-3.467,-3.4666,-3.4707,-3.4726,-3.4821,-3.4664,-3.4663,-3.4649,-3.4642,-3.4717,-3.4725,-3.475,-3.4901,-3.4904,-3.4753,-3.4758,-3.4762,-3.4764,0,0,0,0,0,0,0,-3.4566,-3.4581,-3.4742,-3.4674,-3.467,-3.464,-3.4645,-3.4743,-3.4723,-3.4662,-3.4654,-3.4663,-3.4714,-3.4742,-3.475,-3.4905,-3.4753,-3.476,-3.4765,-3.4769,-3.5199,-3.5205,0,0,0,0,0,0,-3.4566,-3.4577,-3.474,-3.4744,-3.4603,-3.4649,-3.4655,-3.47,-3.4722,-3.4719,-3.4668,-3.4657,-3.4731,-3.4741,-3.4752,-3.4954,-3.4762,-3.4769,-3.4774,-3.5192,-3.52,-3.5207,0,0,0,0,0,0,-3.4562,-3.4582,-3.4738,-3.4658,-3.4676,-3.4659,-3.4711,-3.4704,-3.4732,-3.4726,-3.4721,-3.47,-3.4727,-3.4741,-3.4863,-3.4954,-3.4773,-3.4781,-3.5185,-3.5195,-3.5204,-3.5359,0,0,0,0,0,0,-3.4556,-3.4581,-3.4646,-3.4661,-3.4681,-3.4848,-3.4716,-3.471,-3.4746,-3.4733,-3.4755,-3.4753,-3.4723,-3.4851,-3.4871,-3.4963,-3.4787,-3.5177,-3.5189,-3.5201,-3.5345,-3.5373,-3.5396,0,0,0,0,0,-3.4549,-3.4688,-3.465,-3.4671,-3.4762,-3.4853,-3.4865,-3.4827,-3.4754,-3.4819,-3.4815,-3.4752,-3.4941,-3.4864,-3.4886,-3.4981,-3.5171,-3.5186,-3.52,-3.5334,-3.5367,-3.5395,0,0,0,0,0,0,-3.4686,-3.4689,-3.4647,-3.4795,-3.4825,-3.4833,-3.4914,-3.4864,-3.4915,-3.49,-3.4851,-3.4857,-3.4989,-3.4997,-3.4912,-3.5147,-3.5043,-3.5063,-3.5138,-3.5169,-3.5194,-3.5191,-3.4794,0,0,0,0,0,-3.4733,-3.4807,-3.4806,-3.4936,-3.4953,-3.4931,-3.497,-3.4938,-3.4967,-3.4979,-3.4984,-3.5014,-3.508,-3.5125,-3.5185,-3.5345,-3.5348,-3.5421,-3.5446,-3.5467,-3.5485,-3.557,-3.5602,-3.5255,-3.5255,-3.5255,0,0,-3.4832,-3.4843,-3.4893,-3.4964,-3.4983,-3.5061,-3.4943,-3.503,-3.5088,-3.4992,-3.5108,-3.5112,-3.5143,-3.5285,-3.5347,-3.5295,-3.5581,-3.5485,-3.5502,-3.5509,-3.5588,-3.5621,-3.5651,-3.5265,-3.5263,-3.5262,0,0,-3.5052,-3.5068,-3.5178,-3.5199,-3.523,-3.5214,-3.524,-3.5255,-3.5255,-3.5369,-3.5299,-3.5366,-3.5481,-3.5506,-3.5533,-3.5761,-3.5705,-3.5782,-3.5915,-3.5998,-3.6025,-3.6049,-3.6131,-3.6161,-3.5799,-3.58,-3.58,0,-3.5172,-3.5286,-3.5242,-3.5334,-3.5368,-3.5283,-3.5395,-3.5418,-3.5467,-3.5492,-3.5432,-3.5573,-3.5588,-3.5734,-3.579,-3.5815,-3.5844,-3.578,-3.6025,-3.6048,-3.607,-3.6148,-3.6179,-3.5809,-3.5808,-3.5807,-3.5806,0,-3.5432,-3.5513,-3.5598,-3.5647,-3.569,-3.5792,-3.5762,-3.581,-3.5774,-3.5765,-3.5882,-3.5896,-3.5958,-3.599,-3.5956,-3.6132,-3.6098,-3.6033,-3.5928,-3.6113,-3.6186,-3.6215,-3.5822,-3.5819,-3.5816,-3.5814,0,0,-3.5744,-3.5764,-3.5797,-3.5818,-3.5844,-3.5905,-3.6002,-3.6062,-3.6105,-3.614,-3.6221,-3.6319,-3.6258,-3.6289,-3.6257,-3.633,-3.651,-3.6255,-3.6255,-3.6303,-3.6705,-3.6756,-3.6791,-3.6472,-3.6477,-3.6482,-3.6703,0,-3.5963,-3.6131,-3.6093,-3.6259,-3.6332,-3.6252,-3.6337,-3.6362,-3.6355,-3.6416,-3.6407,-3.6478,-3.6392,-3.641,-3.6479,-3.6474,-3.659,-3.6457,-3.6547,-3.6551,-3.6545,-3.6828,-3.6883,-3.7091,-3.673,-3.6735,-3.6739,0,-3.6243,-3.6289,-3.6462,-3.6475,-3.6504,-3.6582,-3.6633,-3.6692,-3.6718,-3.6708,-3.6742,-3.6695,-3.6791,-3.6683,-3.6814,-3.6725,-3.6758,-3.6761,-3.6768,-3.6777,-3.6658,-3.6847,-3.7156,-3.7188,-3.6783,-3.6779,-3.6776,0,-3.6454,-3.6559,-3.6676,-3.6696,-3.6714,-3.677,-3.678,-3.68,-3.6838,-3.6882,-3.6906,-3.6961,-3.6992,-3.7036,-3.7004,-3.6928,-3.7141,-3.7031,-3.7136,-3.7137,-3.7187,-3.7185,-3.7508,-3.7206,-3.7205,-3.7205,-3.7204,0,-3.6705,-3.6815,-3.6771,-3.6844,-3.6963,-3.6917,-3.7037,-3.7038,-3.7056,-3.7127,-3.706,-3.7128,-3.7081,-3.7145,-3.7121,-3.7234,-3.7248,-3.7242,-3.7235,-3.725,-3.7251,-3.7273,-3.7259,-3.7213,-3.7211,-3.721,-3.7208,0,-3.6963,-3.6938,-3.7061,-3.7067,-3.7071,-3.7159,-3.7164,-3.7232,-3.7218,-3.7309,-3.7327,-3.7307,-3.7378,-3.735,-3.7427,-3.741,-3.7555,-3.7528,-3.7547,-3.754,-3.7648,-3.7639,-3.7999,-3.8044,-3.7711,-3.7714,-3.7717,0,-3.7126,-3.7208,-3.7223,-3.7265,-3.728,-3.7349,-3.7387,-3.7344,-3.7387,-3.7422,-3.7485,-3.755,-3.76,-3.7718,-3.771,-3.7768,-3.7742,-3.7864,-3.7751,-3.7763,-3.7746,-3.7742,-3.775,-3.7888,-3.7892,-3.7895,-3.7897,0,-3.7418,-3.7401,-3.7458,-3.7512,-3.7559,-3.7599,-3.7633,-3.7671,-3.763,-3.7681,-3.7753,-3.7792,-3.7868,-3.7934,-3.7985,-3.7995,-3.7941,-3.7933,-3.796,-3.7978,-3.7986,-3.7984,-3.7611,-3.7925,-3.7923,-3.7921,-3.7919,-3.7918,-3.7634,-3.7703,-3.7724,-3.779,-3.7811,-3.7844,-3.7907,-3.7901,-3.796,-3.802,-3.799,-3.8074,-3.8096,-3.8159,-3.8176,-3.824,-3.8193,-3.8233,-3.8243,-3.8254,-3.8269,-3.7974,-3.8249,-3.8248,-3.8248,-3.8247,-3.8246,0,-3.7924,-3.7933,-3.7994,-3.8043,-3.8095,-3.8037,-3.8071,-3.8118,-3.8193,-3.8218,-3.8269,-3.8351,-3.8414,-3.841,-3.8468,-3.8521,-3.8497,-3.8538,-3.8535,-3.8538,-3.8308,-3.8279,-3.8556,-3.8556,-3.8556,-3.8556,-3.8556,-3.8556,-3.8081,-3.8195,-3.8181,-3.8304,-3.8311,-3.8393,-3.8418,-3.8447,-3.8467,-3.8563,-3.8614,-3.8611,-3.8625,-3.8683,-3.8738,-3.8735,-3.876,-3.8811,-3.8799,-3.8585,-3.8554,-3.8525,-3.8497,-3.8816,-3.8816,-3.9023,-3.9025,-3.9027]},{"header":{"parameterUnit":"m.s-1","parameterCategory":1,"la1":30.2991,"la2":30.254,"lo1":-89.0895,"lo2":-89.0444,"dy":0.0017,"dx":0.0017,"nx":28,"ny":28,"refTime":"2024-11-30T03:00:00:Z","depth":0,"parameterNumber":3,"parameterNumberName":"V-component_of_WINDS"},"data":[0,0,0,0,0,0,0,0,0,0,0,0,0,0,0,0,0,0,0,0,0,0,0,0,0,0,0,0,0,0,0,0,0,0,0,0,0,0,0,0,0,0,0,0,0,0,0,0,0,0,0,0,0,0,0,0,0,0,-6.4967,-6.4968,0,-6.506,-6.5061,-6.5062,-6.496,-6.4956,-6.4952,-6.4948,-6.5038,-6.5044,-6.505,0,0,0,0,0,0,0,0,0,0,0,0,0,-6.4694,-6.4699,-6.4967,-6.4968,-6.497,-6.506,-6.5061,-6.5063,-6.496,-6.4956,-6.4951,-6.4946,-6.5036,-6.5043,-6.505,0,0,0,0,0,0,0,0,0,0,0,0,0,-6.4802,-6.4701,-6.4967,-6.4929,-6.4927,-6.506,-6.5062,-6.5063,-6.4961,-6.4955,-6.495,-6.4944,-6.5034,-6.5043,-6.5051,-6.5224,0,0,-6.5079,-6.5083,0,0,0,0,0,0,0,0,-6.4796,-6.4812,-6.4934,-6.4932,-6.493,-6.4992,-6.4998,-6.5117,-6.4963,-6.4948,-6.4948,-6.4941,-6.5027,-6.5036,-6.5067,-6.5228,-6.5232,-6.508,-6.5085,-6.5089,-6.5092,0,0,0,0,0,0,0,-6.4789,-6.4808,-6.5004,-6.4936,-6.4933,-6.4906,-6.4915,-6.502,-6.5019,-6.4949,-6.4942,-6.4954,-6.5025,-6.5058,-6.5068,-6.5234,-6.508,-6.5088,-6.5093,-6.5097,-6.5539,-6.5545,0,0,0,0,0,0,-6.4786,-6.4802,-6.5001,-6.5007,-6.4847,-6.4915,-6.4925,-6.4978,-6.5018,-6.5018,-6.4959,-6.4949,-6.5046,-6.5058,-6.5071,-6.5274,-6.5089,-6.5098,-6.5103,-6.5533,-6.554,-6.5547,0,0,0,0,0,0,-6.4781,-6.4805,-6.4997,-6.4903,-6.4925,-6.4926,-6.4986,-6.4983,-6.5016,-6.5026,-6.5024,-6.4994,-6.5041,-6.5058,-6.5187,-6.5276,-6.5102,-6.511,-6.5525,-6.5535,-6.5544,-6.5683,0,0,0,0,0,0,-6.4774,-6.4804,-6.4871,-6.4905,-6.493,-6.5114,-6.4992,-6.4989,-6.5033,-6.502,-6.5058,-6.5058,-6.5038,-6.5174,-6.5196,-6.5285,-6.5117,-6.5517,-6.553,-6.5541,-6.5671,-6.5696,-6.5718,0,0,0,0,0,-6.4764,-6.4906,-6.4875,-6.49,-6.5015,-6.5119,-6.5134,-6.5109,-6.504,-6.5107,-6.5113,-6.5057,-6.5263,-6.5188,-6.5212,-6.5305,-6.5511,-6.5526,-6.554,-6.566,-6.5691,-6.5718,0,0,0,0,0,0,-6.4881,-6.491,-6.4876,-6.5034,-6.5075,-6.5102,-6.5185,-6.5144,-6.5204,-6.519,-6.5155,-6.5164,-6.5301,-6.5316,-6.5232,-6.5473,-6.5375,-6.5395,-6.5459,-6.5488,-6.5512,-6.5505,-6.5125,0,0,0,0,0,-6.4926,-6.5011,-6.503,-6.5167,-6.519,-6.5184,-6.5229,-6.5206,-6.5247,-6.5264,-6.5279,-6.5319,-6.5392,-6.5441,-6.5509,-6.5672,-6.5678,-6.5748,-6.5772,-6.5791,-6.5809,-6.5894,-6.5925,-6.5594,-6.5594,-6.5593,0,0,-6.5018,-6.5044,-6.5099,-6.5191,-6.5221,-6.5306,-6.52,-6.5295,-6.5358,-6.5277,-6.54,-6.5413,-6.5454,-6.5601,-6.5666,-6.5617,-6.5901,-6.581,-6.5825,-6.5832,-6.5912,-6.5943,-6.5971,-6.5604,-6.5602,-6.56,0,0,-6.523,-6.5259,-6.5376,-6.5408,-6.5454,-6.5449,-6.5477,-6.5511,-6.5516,-6.5639,-6.558,-6.5652,-6.578,-6.5812,-6.5845,-6.6068,-6.6018,-6.6091,-6.6215,-6.6298,-6.6324,-6.6347,-6.6425,-6.6454,-6.6108,-6.6108,-6.6108,0,-6.5338,-6.5468,-6.544,-6.5541,-6.5582,-6.5514,-6.563,-6.5662,-6.5727,-6.5756,-6.5701,-6.5859,-6.5882,-6.6034,-6.6089,-6.6118,-6.6147,-6.6086,-6.6323,-6.6346,-6.6367,-6.644,-6.647,-6.6117,-6.6116,-6.6115,-6.6114,0,-6.5597,-6.5688,-6.5776,-6.5843,-6.5894,-6.6001,-6.5988,-6.6042,-6.6015,-6.6016,-6.614,-6.6166,-6.6237,-6.6272,-6.6246,-6.642,-6.6388,-6.6329,-6.623,-6.6407,-6.6476,-6.6504,-6.6129,-6.6126,-6.6123,-6.6121,0,0,-6.5886,-6.5936,-6.5969,-6.5998,-6.6043,-6.6111,-6.6215,-6.6286,-6.6333,-6.638,-6.6464,-6.6573,-6.6518,-6.6556,-6.6532,-6.6606,-6.6778,-6.6537,-6.6537,-6.658,-6.6969,-6.7013,-6.7046,-6.6746,-6.6751,-6.6755,-6.6965,0,-6.6098,-6.628,-6.6258,-6.643,-6.6512,-6.6448,-6.6538,-6.6574,-6.6577,-6.6645,-6.6646,-6.6724,-6.6647,-6.6668,-6.6738,-6.6743,-6.6856,-6.6727,-6.6822,-6.6825,-6.6813,-6.7082,-6.7129,-6.7326,-6.6992,-6.6996,-6.7,0,-6.637,-6.6428,-6.661,-6.6641,-6.6675,-6.6756,-6.6819,-6.6885,-6.6924,-6.692,-6.6962,-6.6925,-6.7026,-6.6926,-6.7063,-6.6976,-6.7013,-6.7021,-6.7028,-6.7035,-6.6923,-6.7096,-6.7388,-6.7418,-6.7042,-6.7039,-6.7036,0,-6.6561,-6.6684,-6.6809,-6.6835,-6.6876,-6.6934,-6.6953,-6.6986,-6.703,-6.7084,-6.7111,-6.7176,-6.7211,-6.726,-6.7241,-6.717,-6.7381,-6.728,-6.7379,-6.738,-6.7426,-6.7424,-6.7728,-6.7452,-6.7452,-6.7451,-6.7451,0,-6.6799,-6.6912,-6.6895,-6.6971,-6.7095,-6.7067,-6.719,-6.72,-6.723,-6.7306,-6.7254,-6.7325,-6.7295,-6.7364,-6.7349,-6.7464,-6.748,-6.7479,-6.7473,-6.7483,-6.7483,-6.7506,-6.7492,-6.7459,-6.7457,-6.7456,-6.7454,0,-6.7034,-6.7027,-6.7157,-6.7185,-6.7194,-6.7284,-6.7306,-6.7377,-6.7375,-6.7471,-6.7492,-6.7488,-6.7566,-6.7552,-6.7638,-6.7627,-6.7771,-6.7749,-6.7759,-6.7753,-6.7853,-6.7843,-6.8183,-6.8225,-6.7923,-6.7925,-6.7928,0,-6.7186,-6.7272,-6.7309,-6.7356,-6.738,-6.7457,-6.7502,-6.7477,-6.7525,-6.7574,-6.7638,-6.7712,-6.777,-6.7897,-6.79,-6.7965,-6.7944,-6.8058,-6.7953,-6.796,-6.7944,-6.7939,-6.7946,-6.8079,-6.8082,-6.8085,-6.8087,0,-6.7457,-6.7449,-6.7516,-6.7582,-6.7637,-6.7687,-6.7732,-6.7773,-6.7752,-6.7808,-6.7888,-6.7933,-6.8021,-6.8094,-6.8154,-6.817,-6.8125,-6.812,-6.8146,-6.8157,-6.8159,-6.8158,-6.7814,-6.8112,-6.811,-6.8108,-6.8107,-6.8106,-6.7653,-6.7726,-6.7763,-6.7839,-6.7871,-6.7914,-6.7981,-6.7988,-6.8055,-6.8125,-6.8105,-6.8196,-6.823,-6.8306,-6.833,-6.8398,-6.8355,-6.8394,-6.8403,-6.8413,-6.8424,-6.8149,-6.8409,-6.8408,-6.8408,-6.8407,-6.8406,0,-6.792,-6.7941,-6.8011,-6.8076,-6.8136,-6.8089,-6.8136,-6.8188,-6.8269,-6.8306,-6.8363,-6.8454,-6.8524,-6.8534,-6.8599,-6.8652,-6.8633,-6.867,-6.8666,-6.867,-6.846,-6.843,-6.8685,-6.8685,-6.8685,-6.8685,-6.8685,-6.8684,-6.8066,-6.8186,-6.8182,-6.8316,-6.8335,-6.8425,-6.8455,-6.8493,-6.8522,-6.8627,-6.8685,-6.8691,-6.8716,-6.8783,-6.8845,-6.8845,-6.8871,-6.8917,-6.8909,-6.8713,-6.8685,-6.8658,-6.863,-6.8923,-6.8923,-6.9113,-6.9115,-6.9116]}]]